Kezdőlap
METAR-TAF:

METAR-TAF

Repülőterek :

Menomonie Municipal Airport (Score Field)

Menomonie, Wisconsin, Amerikai Egyesült Államok

földrajzi szélesség: 44-53-32N, földrajzi hosszúság: 091-52-04W, magasság: 273 m

Jelenlegi meteorológiai megfigyelések

A jelentés 13 perccel ezelõtt készült, 19:55 UTC
Északnyugati szél 3 kt
Hőmérséklet 17°C
Páratartalom 39%
Légköri nyomás 1024 hPa
Látótávolság: 16.1 km

METAR: KLUM 221955Z AUTO 32003KT 10SM 17/03 A3024 RMK AO2 T01740033

Idő: 15:08 (20:08 UTC)


TAF: hiányzik

Meteorológiai megfigyelések és előrejelzések több, mint 4000 repülőtéren (METAR és TAF jelentéseket).

A térképen piros és sárga pontok jelzik az elérhető meteorológiai állomásokat.

Mozgassa az egeret a pont fölött, hogy megjelenjen az állomás neve.

Azután kattintson az időjárási megfigyelések és előrejelzések megtekintéséhez.

A térkép megváltoztatása: kattintson a fekete keresztel jelölt zöld gombra ráközelítéshez, a vonallal jelölt zöld gombra távolításhoz, vagy a zöld nyilakra a szomszédos térképek eléréséhez.


METAR-TAF: